KA0WKG Weather Reports


time (UTC)temp
C
wind
direction
speed
KPH
gust
KPH
rain 1hr
cm
rain 24hr
cm
rain mn
cm
humidity
%
barometer
mb
20260505033508 12 65 25.7 33.8 0.00 0.00 0.00 54 1008.8
20260505033008 12 63 25.7 37.0 0.00 0.00 0.00 53 1008.8
20260505032508 12 63 27.4 37.0 0.00 0.00 0.00 53 1008.8
20260505032008 12 57 25.7 37.0 0.00 0.00 0.00 52 1008.6
20260505031508 12 54 27.4 35.4 0.00 0.00 0.00 52 1008.8
20260505031009 12 61 24.1 37.0 0.00 0.00 0.00 53 1008.6
20260505030507 12 59 25.7 40.2 0.00 0.00 0.00 53 1008.6
20260505030008 13 61 29.0 40.2 0.00 0.00 0.00 52 1008.6
20260505025508 13 67 29.0 37.0 0.00 0.00 0.00 52 1008.6
20260505025007 13 65 22.5 40.2 0.00 0.00 0.00 51 1008.8
20260505023508 13 63 27.4 40.2 0.00 0.00 0.00 50 1008.8
20260505022509 13 67 27.4 41.8 0.00 0.00 0.00 49 1008.5
20260505022008 14 69 25.7 45.1 0.00 0.00 0.00 48 1008.5
20260505021509 14 54 33.8 49.9 0.00 0.00 0.00 48 1008.1
20260505021008 14 40 32.2 49.9 0.00 0.00 0.00 47 1007.8
20260505020507 14 45 38.6 46.7 0.00 0.00 0.00 47 1007.9
20260505020008 14 53 35.4 41.8 0.00 0.00 0.00 46 1007.9
20260505014507 15 69 20.9 29.0 0.00 0.00 0.00 47 1007.6
20260505014007 15 71 19.3 35.4 0.00 0.00 0.00 46 1007.6
20260505013507 15 66 25.7 35.4 0.00 0.00 0.00 45 1007.5
20260505013007 15 58 22.5 35.4 0.00 0.00 0.00 45 1007.4
20260505012507 15 57 25.7 38.6 0.00 0.00 0.00 44 1007.4
20260505012007 16 57 29.0 38.6 0.00 0.00 0.00 44 1007.4
20260505011508 16 54 25.7 38.6 0.00 0.00 0.00 44 1007.1
20260505011008 16 50 29.0 38.6 0.00 0.00 0.00 43 1006.9
20260505010507 16 56 22.5 45.1 0.00 0.00 0.00 43 1006.9
20260505010007 16 41 33.8 45.1 0.00 0.00 0.00 42 1006.7
20260505005507 16 47 25.7 38.6 0.00 0.00 0.00 41 1006.3
20260505005007 16 43 25.7 40.2 0.00 0.00 0.00 41 1006.3
20260505004508 16 44 29.0 45.1 0.00 0.00 0.00 40 1006.2
20260505004007 16 41 32.2 45.1 0.00 0.00 0.00 40 1006.1
20260505003507 17 32 30.6 45.1 0.00 0.00 0.00 40 1006.2
20260505003007 17 44 27.4 45.1 0.00 0.00 0.00 40 1006.1
20260505002509 17 44 33.8 45.1 0.00 0.00 0.00 39 1006.1
20260505001507 17 38 33.8 45.1 0.00 0.00 0.00 38 1006.0
20260505001007 17 38 29.0 45.1 0.00 0.00 0.00 37 1006.1
20260505000508 17 41 33.8 45.1 0.00 0.00 0.00 37 1006.1
20260505000007 18 39 32.2 45.1 0.00 0.00 0.00 37 1006.1
20260504235008 18 35 24.1 45.1 0.00 0.00 0.00 36 1006.1
20260504234507 18 40 32.2 45.1 0.00 0.00 0.00 36 1006.0
20260504234007 18 42 32.2 40.2 0.00 0.00 0.00 36 1006.2
20260504233507 18 41 27.4 40.2 0.00 0.00 0.00 36 1006.3
20260504233007 18 52 29.0 49.9 0.00 0.00 0.00 36 1006.2
20260504232506 18 42 33.8 49.9 0.00 0.00 0.00 35 1005.8
20260504232006 18 35 33.8 48.3 0.00 0.00 0.00 35 1005.6
20260504231507 18 36 27.4 51.5 0.00 0.00 0.00 35 1005.5
20260504231007 18 40 35.4 51.5 0.00 0.00 0.00 35 1005.4
20260504230508 19 40 32.2 46.7 0.00 0.00 0.00 34 1005.5
20260504225506 20 27 29.0 48.3 0.00 0.00 0.00 33 1005.2
20260504225007 19 36 32.2 48.3 0.00 0.00 0.00 33 1005.2
20260504224507 19 38 33.8 46.7 0.00 0.00 0.00 33 1005.2
20260504224006 20 40 32.2 46.7 0.00 0.00 0.00 33 1005.1
20260504223507 20 43 32.2 41.8 0.00 0.00 0.00 32 1004.8
20260504223007 20 43 29.0 41.8 0.00 0.00 0.00 32 1004.8
20260504222507 20 35 27.4 45.1 0.00 0.00 0.00 31 1004.7
20260504221506 20 24 32.2 53.1 0.00 0.00 0.00 30 1004.6
20260504220506 21 64 32.2 51.5 0.00 0.00 0.00 31 1004.5
20260504220008 21 53 37.0 49.9 0.00 0.00 0.00 30 1004.4
20260504215507 21 60 37.0 49.9 0.00 0.00 0.00 31 1004.4
20260504214506 21 50 41.8 57.9 0.00 0.00 0.00 30 1004.3
20260504214007 21 39 38.6 57.9 0.00 0.00 0.00 30 1004.2
20260504213507 22 19 40.2 51.5 0.00 0.00 0.00 29 1004.1
20260504213007 22 46 35.4 48.3 0.00 0.00 0.00 27 1004.2
20260504212007 23 48 29.0 51.5 0.00 0.00 0.00 28 1004.3
20260504211507 22 37 35.4 51.5 0.00 0.00 0.00 27 1004.3
20260504211006 23 52 29.0 46.7 0.00 0.00 0.00 29 1004.3
20260504210507 23 66 27.4 46.7 0.00 0.00 0.00 29 1004.4
20260504205007 22 17 38.6 51.5 0.00 0.00 0.00 29 1004.5
20260504204506 22 52 30.6 48.3 0.00 0.00 0.00 30 1004.5
20260504204007 23 45 32.2 41.8 0.00 0.00 0.00 27 1004.5
20260504203507 24 60 27.4 40.2 0.00 0.00 0.00 28 1004.5
20260504203007 23 55 25.7 41.8 0.00 0.00 0.00 29 1004.5
20260504202506 23 48 32.2 41.8 0.00 0.00 0.00 30 1004.4
20260504202007 23 57 30.6 40.2 0.00 0.00 0.00 28 1004.5
20260504201007 22 54 33.8 45.1 0.00 0.00 0.00 29 1004.5
20260504200007 23 59 35.4 48.3 0.00 0.00 0.00 28 1004.4
20260504195006 24 62 24.1 38.6 0.00 0.00 0.00 26 1004.4
20260504194006 25 27 8.0 22.5 0.00 0.00 0.00 18 1004.4
20260504193007 25 24 6.4 16.1 0.00 0.00 0.00 18 1004.5
20260504192506 25 274 9.7 16.1 0.00 0.00 0.00 18 1004.5
20260504192006 25 302 3.2 16.1 0.00 0.00 0.00 19 1004.6
20260504191507 25 185 4.8 19.3 0.00 0.00 0.00 18 1004.6
20260504191006 25 90 9.7 19.3 0.00 0.00 0.00 18 1004.7
20260504190006 25 74 4.8 11.3 0.00 0.00 0.00 17 1004.7
20260504185506 25 146 4.8 11.3 0.00 0.00 0.00 18 1004.7
20260504185006 25 113 1.6 11.3 0.00 0.00 0.00 18 1004.7
20260504184506 25 8 1.6 16.1 0.00 0.00 0.00 20 1004.8
20260504184006 25 89 4.8 16.1 0.00 0.00 0.00 18 1005.0
20260504183507 24 8 4.8 16.1 0.00 0.00 0.00 21 1005.0
20260504182506 24 5 9.7 19.3 0.00 0.00 0.00 19 1005.2
20260504182006 24 13 6.4 19.3 0.00 0.00 0.00 20 1005.2
20260504181506 24 332 6.4 14.5 0.00 0.00 0.00 22 1005.3
20260504181007 24 345 8.0 12.9 0.00 0.00 0.00 18 1005.4
20260504180505 25 349 8.0 12.9 0.00 0.00 0.00 19 1005.4
20260504180006 25 56 3.2 12.9 0.00 0.00 0.00 21 1005.5
20260504175506 25 155 9.7 14.5 0.00 0.00 0.00 20 1005.5
20260504175006 25 161 4.8 14.5 0.00 0.00 0.00 20 1005.7
20260504174506 25 162 8.0 16.1 0.00 0.00 0.00 21 1005.7
20260504174007 24 154 8.0 16.1 0.00 0.00 0.00 21 1005.8
20260504173506 24 186 9.7 16.1 0.00 0.00 0.00 24 1005.8
20260504173006 23 161 9.7 16.1 0.00 0.00 0.00 22 1005.8
20260504172006 23 144 8.0 14.5 0.00 0.00 0.00 21 1006.0
20260504171506 23 56 3.2 14.5 0.00 0.00 0.00 22 1006.0
20260504171005 23 53 9.7 14.5 0.00 0.00 0.00 23 1005.9
20260504170505 23 95 8.0 14.5 0.00 0.00 0.00 23 1005.9
20260504150506 17 339 4.8 11.3 0.00 0.00 0.00 46 1006.5
20260504141005 14 351 8.0 12.9 0.00 0.00 0.00 52 1006.7
20260504140506 14 342 9.7 12.9 0.00 0.00 0.00 52 1006.7
20260504130505 8 319 8.0 12.9 0.00 0.00 0.00 72 1006.6
20260504110504 3 291 11.3 12.9 0.00 0.00 0.00 84 1006.0
20260504100504 3 341 9.7 11.3 0.00 0.00 0.00 84 1006.3
20260504082004 5 315 12.9 14.5 0.00 0.00 0.00 77 1006.9
20260504081504 5 322 12.9 16.1 0.00 0.00 0.00 78 1007.0
20260504081004 5 314 14.5 16.1 0.00 0.00 0.00 78 1007.1
20260504080504 5 312 12.9 14.5 0.00 0.00 0.00 77 1007.1